Location: Camp Roosevelt
(41.7914°N, 81.1673°W)
Time: 06:54:45
(UTC+00:00)

SAR-Lupe-4 - Pass Details

Date: 29 October 2020
Orbit: 481 x 484 km, 98.2° (Epoch: 22 November)

Event Time Altitude Azimuth Distance (km) Brightness Sun altitude
Rises 23:22:23 0° 12° (NNE) 2,552 7.0 -11.8°
Reaches altitude 10° 23:24:27 10° 12° (NNE) 1,668 6.1 -12.1°
Maximum altitude 23:28:02 86° 288° (WNW) 489 3.5 -12.8°
Drops below altitude 10° 23:31:35 10° 196° (SSW) 1,654 6.5 -13.5°
Sets 23:33:38 0° 195° (SSW) 2,529 7.5 -13.8°
